Weather History for KAHQ - July, 2014

Change the Weather History Date:

Sunday, July 13, 2014

  Actual Average Record
Temperature  
Mean Temperature 76 °F -  
Max Temperature 88 °F 89 °F 103 °F (1981)
Min Temperature 65 °F 65 °F 47 °F (1975)
Cooling Degree Days 11    
Growing Degree Days 26 (Base 50)    
Moisture  
Dew Point 66 °F    
Average Humidity 72    
Maximum Humidity 91    
Minimum Humidity 43    
Precipitation  
Precipitation 0.14 in - - ()
Sea Level Pressure  
Sea Level Pressure 30.03 in    
Wind  
Wind Speed 3 mph (WNW)    
Max Wind Speed 17 mph    
Max Gust Speed 25 mph    
Visibility 9 miles    
Events Rain    
Averages and records for this station are not official NWS values.
T = Trace of Precipitation, MM = Missing Value Source: NWS Daily Summary

Daily Weather History Graph

Daily Weather History Graph

Search for Another Location

Airport or City:

Trip Planner

Search our weather history database for the weather conditions in past years. The results will help you decide how hot, cold, wet, or windy it might be!

Date:

Astronomy

Jul. 13, 2014 Rise Set
Actual Time 6:04 AM CDT 8:59 PM CDT
Civil Twilight 5:32 AM CDT 9:31 PM CDT
Nautical Twilight 4:50 AM CDT 10:13 PM CDT
Astronomical Twilight 4:02 AM CDT 11:01 PM CDT
Moon 9:46 PM CDT (7/13) 7:38 AM CDT (7/13)
Length of Visible Light 15h 59m
Length of Day
14h 54m
Full, 98% of the Moon is Illuminated
Jul 13
Full
Jul 18
Last Quarter
Jul 26
New
Aug 3
First Quarter
Aug 10
Full

Hourly Weather History & Observations

Time (CDT) Temp. Heat Index Dew Point Humidity Pressure Visibility Wind Dir Wind Speed Gust Speed Precip Events Conditions
12:15 AM 68.7 °F - 64.9 °F 88% 30.04 in 10.0 mi Calm Calm - N/A   Clear
12:35 AM 67.1 °F - 63.5 °F 88% 30.04 in 10.0 mi Calm Calm - N/A   Clear
12:55 AM 67.3 °F - 63.9 °F 89% 30.04 in 10.0 mi Calm Calm - N/A   Clear
1:15 AM 66.2 °F - 63.1 °F 90% 30.04 in 10.0 mi West 3.5 mph - N/A   Clear
1:35 AM 65.8 °F - 63.0 °F 90% 30.04 in 7.0 mi Calm Calm - N/A   Clear
1:55 AM 66.7 °F - 63.9 °F 90% 30.04 in 7.0 mi SW 3.5 mph - N/A   Clear
2:15 AM 66.0 °F - 63.1 °F 90% 30.05 in 5.0 mi SSW 3.5 mph - N/A   Clear
2:35 AM 66.4 °F - 63.7 °F 91% 30.06 in 4.0 mi SW 4.6 mph - N/A   Clear
2:55 AM 66.9 °F - 64.2 °F 91% 30.06 in 5.0 mi Calm Calm - N/A   Clear
3:15 AM 66.9 °F - 64.2 °F 91% 30.05 in 5.0 mi Calm Calm - N/A   Clear
3:35 AM 66.7 °F - 64.0 °F 91% 30.05 in 5.0 mi WSW 4.6 mph - N/A   Clear
3:55 AM 67.5 °F - 64.6 °F 90% 30.04 in 5.0 mi West 4.6 mph - N/A   Clear
4:15 AM 67.3 °F - 64.4 °F 90% 30.04 in 5.0 mi West 3.5 mph - N/A   Clear
4:35 AM 67.1 °F - 64.4 °F 91% 30.04 in 7.0 mi Calm Calm - N/A   Clear
4:55 AM 67.8 °F - 64.9 °F 90% 30.05 in 7.0 mi WNW 5.8 mph - N/A   Clear
5:15 AM 66.7 °F - 63.9 °F 90% 30.06 in 10.0 mi West 3.5 mph - N/A   Clear
5:35 AM 65.8 °F - 63.0 °F 90% 30.07 in 10.0 mi West 4.6 mph - N/A   Clear
5:55 AM 66.7 °F - 63.9 °F 90% 30.07 in 10.0 mi WNW 3.5 mph - N/A   Clear
6:15 AM 67.1 °F - 63.7 °F 89% 30.07 in 10.0 mi Calm Calm - N/A   Clear
6:35 AM 66.6 °F - 63.5 °F 90% 30.07 in 10.0 mi Calm Calm - N/A   Clear
6:55 AM 66.4 °F - 63.7 °F 91% 30.07 in 10.0 mi Calm Calm - N/A   Clear
7:15 AM 69.4 °F - 65.7 °F 88% 30.07 in 10.0 mi NW 4.6 mph - N/A   Clear
7:35 AM 70.7 °F - 66.6 °F 87% 30.07 in 10.0 mi NW 3.5 mph - N/A   Clear
7:55 AM 71.8 °F - 67.1 °F 85% 30.08 in 10.0 mi NW 3.5 mph - N/A   Clear
8:15 AM 73.4 °F - 68.0 °F 83% 30.08 in 10.0 mi NW 4.6 mph - N/A   Clear
8:35 AM 75.0 °F - 68.7 °F 81% 30.08 in 10.0 mi NW 4.6 mph - N/A   Clear
8:55 AM 75.9 °F - 68.9 °F 79% 30.08 in 10.0 mi NW 5.8 mph - N/A   Clear
9:15 AM 77.2 °F - 68.9 °F 76% 30.08 in 10.0 mi NW 3.5 mph - N/A   Clear
9:35 AM 78.3 °F - 68.5 °F 72% 30.08 in 10.0 mi Calm Calm - N/A   Clear
9:55 AM 79.7 °F - 68.5 °F 69% 30.08 in 10.0 mi NW 5.8 mph - N/A   Clear
10:15 AM 80.6 °F 83.1 °F 67.5 °F 64% 30.08 in 10.0 mi NW 4.6 mph - N/A   Clear
10:35 AM 81.7 °F 84.5 °F 68.0 °F 63% 30.07 in 10.0 mi NW 5.8 mph - N/A   Clear
10:55 AM 82.4 °F 85.4 °F 68.2 °F 62% 30.07 in 10.0 mi NW 6.9 mph - N/A   Clear
11:15 AM 83.1 °F 86.1 °F 67.8 °F 60% 30.06 in 10.0 mi WNW 5.8 mph - N/A   Clear
11:35 AM 83.5 °F 86.0 °F 66.9 °F 57% 30.06 in 10.0 mi NW 6.9 mph - N/A   Clear
11:55 AM 84.2 °F 87.1 °F 67.3 °F 57% 30.06 in 10.0 mi WNW 6.9 mph - N/A   Clear
12:15 PM 84.0 °F 86.3 °F 66.0 °F 55% 30.06 in 10.0 mi WNW 8.1 mph - N/A   Scattered Clouds
12:35 PM 84.0 °F 85.8 °F 64.9 °F 53% 30.05 in 10.0 mi Calm Calm - N/A   Scattered Clouds
12:55 PM 85.5 °F 87.9 °F 66.6 °F 53% 30.05 in 10.0 mi West 6.9 mph - N/A   Scattered Clouds
1:15 PM 85.8 °F 87.9 °F 65.7 °F 51% 30.04 in 10.0 mi Calm Calm - N/A   Scattered Clouds
1:35 PM 86.5 °F 88.4 °F 65.3 °F 49% 30.04 in 10.0 mi NW 4.6 mph - N/A   Scattered Clouds
1:55 PM 86.5 °F 88.1 °F 64.6 °F 48% 30.03 in 10.0 mi NW 5.8 mph - N/A   Scattered Clouds
2:15 PM 85.5 °F 86.3 °F 63.3 °F 47% 30.02 in 10.0 mi Calm Calm - N/A   Scattered Clouds
2:35 PM 86.5 °F 87.3 °F 62.8 °F 45% 30.02 in 10.0 mi Calm Calm - N/A   Mostly Cloudy
2:55 PM 86.9 °F 88.1 °F 64.0 °F 46% 30.02 in 10.0 mi WNW 3.5 mph - N/A   Mostly Cloudy
3:15 PM 87.8 °F 88.5 °F 63.0 °F 43% 30.01 in 10.0 mi West 3.5 mph - N/A   Scattered Clouds
3:35 PM 84.4 °F 86.3 °F 65.3 °F 53% 30.01 in 10.0 mi WNW 3.5 mph - N/A   Overcast
3:55 PM 78.6 °F - 66.4 °F 66% 30.03 in 5.0 mi NNW 17.3 mph 25.3 mph 0.06 in Rain Heavy Rain
4:15 PM 79.9 °F - 67.3 °F 65% 30.01 in 10.0 mi East 4.6 mph - 0.08 in   Mostly Cloudy
4:35 PM 84.0 °F 85.4 °F 64.2 °F 51% 30.00 in 10.0 mi Calm Calm - 0.08 in   Scattered Clouds
4:55 PM 83.7 °F 86.5 °F 67.3 °F 58% 30.00 in 10.0 mi Calm Calm - 0.08 in   Mostly Cloudy
5:15 PM 84.0 °F 86.8 °F 67.3 °F 57% 30.00 in 10.0 mi North 4.6 mph - N/A   Scattered Clouds
5:35 PM 84.7 °F 87.9 °F 67.8 °F 57% 30.00 in 10.0 mi North 4.6 mph - N/A   Clear
5:55 PM 84.6 °F 87.4 °F 67.3 °F 56% 30.00 in 10.0 mi North 3.5 mph - N/A   Clear
6:15 PM 85.1 °F 87.7 °F 66.9 °F 54% 29.99 in 10.0 mi NW 4.6 mph - N/A   Clear
6:35 PM 83.3 °F 86.9 °F 68.9 °F 62% 29.99 in 10.0 mi NNW 3.5 mph - N/A   Clear
6:55 PM 84.4 °F 87.6 °F 68.2 °F 58% 29.99 in 10.0 mi WNW 3.5 mph - N/A   Clear
7:15 PM 83.8 °F 87.0 °F 68.2 °F 59% 29.98 in 10.0 mi NW 3.5 mph - N/A   Clear
7:35 PM 82.9 °F 86.0 °F 68.2 °F 61% 29.98 in 10.0 mi Calm Calm - N/A   Clear
7:55 PM 81.7 °F 84.5 °F 68.2 °F 63% 29.98 in 10.0 mi Calm Calm - N/A   Clear
8:15 PM 80.1 °F 83.2 °F 69.8 °F 71% 29.99 in 10.0 mi Calm Calm - N/A   Clear
8:35 PM 79.0 °F - 69.6 °F 73% 29.99 in 10.0 mi Calm Calm - N/A   Clear
8:55 PM 79.2 °F - 67.8 °F 68% 29.99 in 10.0 mi Calm Calm - N/A   Clear
9:15 PM 77.4 °F - 67.5 °F 71% 29.99 in 10.0 mi Calm Calm - N/A   Clear
9:35 PM 77.9 °F - 67.3 °F 70% 29.99 in 10.0 mi Calm Calm - N/A   Clear
9:55 PM 74.5 °F - 67.6 °F 79% 29.99 in 10.0 mi WSW 4.6 mph - N/A   Clear
10:15 PM 74.5 °F - 68.0 °F 80% 30.00 in 10.0 mi WSW 4.6 mph - N/A   Clear
10:35 PM 73.8 °F - 68.0 °F 82% 30.00 in 10.0 mi West 4.6 mph - N/A   Clear
10:55 PM 72.7 °F - 67.6 °F 84% 30.00 in 10.0 mi WSW 4.6 mph - N/A   Clear
11:15 PM 72.1 °F - 67.5 °F 85% 29.99 in 10.0 mi WSW 3.5 mph - N/A   Clear
11:35 PM 71.1 °F - 66.7 °F 86% 29.98 in 10.0 mi SW 4.6 mph - N/A   Clear
11:55 PM 71.2 °F - 66.6 °F 85% 29.99 in 10.0 mi WSW 5.8 mph - N/A   Clear